Flag for U.S.A. Weather past 2 weeks in Pierre, South Dakota, U.S.A.

Now
22 °F

Ice fog.


Feels Like: 6 °F
Forecast: 14 / 26 °F
Wind: 22 mph from East

Location: Pierre Regional Airport

Current Time: Jan 31, 2015 at 12:21:12 PM

Latest Report: Jan 31, 2015 at 11:53 AM


Visibility: 5 mi

Pressure: 30.21 "Hg

Humidity: 92%

Dew point: 20 °F

Location of PierreLocation

Historic Weather in Pierre — Graph

°F

Pierre temperature yesterday

Maximum temperature yesterday: 46 °F (at 2:53 PM)
Minimum temperature yesterday: 20 °F (at 5:53 AM)
Average temperature yesterday: 29 °F

Past Weeks' High & Low Weather Summary

 TemperatureHumidityPressure
High58 °F (Jan 27, 3:53 PM)100% (Jan 28, 6:53 AM)30.53 "Hg (Jan 28, 6:53 AM)
Low17 °F (Jan 22, 7:53 AM)33% (Jan 26, 3:53 PM)29.60 "Hg (Jan 24, 3:53 PM)
Average36 °F71%30.03 "Hg
* Reported Jan 16 10:53 AM — Jan 31 10:53 AM, Pierre, Weather by CustomWeather, © 2014

Note: Actual official high and low records may vary slightly from our data, if they occured in-between our weather recording intervals... More about our weather records

Advertising

Pierre weather history for previous 24 hours

 ConditionsComfort  
Time TempWeatherWind HumidityBarometerVisibility
10:53 AM
Jan 31
22 °FIce fog.20 mph92%30.21 "Hg4 mi
9:53 AM23 °FIce fog.16 mph96%30.20 "Hg2 mi
9:00 AM23 °FIce fog.16 mph96%30.14 "Hg2 mi
7:53 AM24 °FIce fog.16 mph96%30.17 "Hg2 mi
6:53 AM24 °FIce fog.17 mph96%30.18 "Hg1 mi
5:53 AM26 °FIce fog.8 mph96%30.14 "Hg1 mi
5:03 AM25 °FIce fog.10 mph96%30.10 "Hg1 mi
4:53 AM25 °FIce fog.15 mph96%30.15 "Hg1 mi
3:53 AM25 °FClear.6 mph92%30.15 "Hg10 mi
2:53 AM27 °FClear.8 mph89%30.14 "Hg10 mi
1:53 AM28 °FClear.10 mph81%30.14 "Hg10 mi
12:53 AM24 °FClear.8 mph84%30.16 "Hg10 mi
11:53 PM
Jan 30
22 °FClear.No wind89%30.17 "Hg10 mi
10:53 PM27 °FClear.No wind81%30.18 "Hg10 mi
9:53 PM26 °FClear.No wind77%30.20 "Hg10 mi
8:53 PM27 °FClear.3 mph78%30.20 "Hg10 mi
7:53 PM30 °FClear.6 mph72%30.20 "Hg10 mi
6:53 PM28 °FClear.8 mph75%30.20 "Hg10 mi
5:53 PM38 °FClear.6 mph55%30.18 "Hg10 mi
4:53 PM44 °FSunny.3 mph45%30.16 "Hg10 mi
3:53 PM46 °FSunny.5 mph42%30.18 "Hg10 mi
2:53 PM46 °FSunny.6 mph42%30.17 "Hg10 mi
1:53 PM45 °FSunny.6 mph44%30.19 "Hg10 mi
12:53 PM42 °FSunny.6 mph49%30.21 "Hg10 mi
Weather by CustomWeather, © 2014

See weather overviewHow to use our weather pages